Startpagina
METAR-TAF:

METAR-TAF

Vliegvelden :

Sandpoint Airport (Dave Wall Field)

Sandpoint, Idaho, Verenigde Staten

breedte: 48-17-58N, lengte: 116-33-36W, hoogte: 648 m

Actueel weer

Dit bericht is 13 minuten geleden gemaakt, om 17:55 UTC
Wind 3 kt uit het oostzuidoosten
Temperatuur 5°C
Vochtigheid 70%
Druk 1014 hPa
Zicht: 16.1 km
Onbewolkt

METAR: KSZT 221755Z AUTO 11003KT 10SM CLR 05/00 A2994 RMK AO2

Tijdstip: 11:08 (18:08 UTC)


TAF: ontbreekt

Waarnemingen en weersverwachtingen van meer dan 4000 vliegvelden (METAR en TAF).

De beschikbare stations zijn de gele en rode punten op de kaart.

Ga met uw muis naar het station om de naam te zien.

Klik dan om waarnemingen en weersverwachtingen te zien.

kaart wijzigen: klik op de groene knoppen met een zwart kruis om in te zoomen, op de groene knop met een streepje om uit te zoomen of op de groene pijlen voor aangrenzende kaarten.


METAR-TAF: